QPF
0.00 0.00 0.00 0.00 0.00 0.00 0.00 0.00 0.00 0.00 0.00 0.00 0.00 0.00 0.01 0.00 0.00 0.00 0.00 0.01 0.00 0.00 0.00 0.00 0.00 0.00 0.01 0.01 0.01 0.00 0.00 0.00 0.00
0.00 0.00 0.00 0.00 0.00 0.00 0.00 0.00 0.00 0.00 0.00 0.00 0.00 0.00 0.00 0.00 0.00 0.00 0.00 0.00 0.02 0.00 0.00 0.00 0.00 0.00 0.01 0.01 0.00 0.00 0.00 0.00 0.00
0.00 0.00 0.00 0.00 0.00 0.00 0.00 0.00 0.00 0.00 0.00 0.00 0.00 0.00 0.00 0.00 0.00 0.00 0.01 0.01 0.03 0.03 0.00 0.00 0.00 0.00 0.00 0.01 0.00 0.01 0.00 0.00 0.00
0.00 0.00 0.00 0.00 0.00 0.00 0.00 0.00 0.00 0.00 0.00 0.00 0.00 0.00 0.00 0.00 0.00 0.00 0.00 0.00 0.01 0.01 0.00 0.00 0.00 0.00 0.00 0.00 0.00 0.01 0.01 0.00 0.00
0.00 0.00 0.00 0.00 0.00 0.00 0.00 0.00 0.00 0.00 0.00 0.00 0.00 0.00 0.00 0.00 0.00 0.00 0.00 0.00 0.00 0.01 0.03 0.02 0.01 0.00 0.00 0.01 0.01 0.03 0.03 0.01 0.00
0.00 0.00 0.00 0.00 0.00 0.00 0.00 0.00 0.00 0.00 0.00 0.00 0.00 0.00 0.00 0.00 0.00 0.00 0.00 0.00 0.00 0.01 0.02 0.04 0.06 0.07 0.05 0.03 0.02 0.02 0.02 0.02 0.01
0.00 0.00 0.00 0.00 0.00 0.00 0.00 0.00 0.00 0.00 0.00 0.00 0.00 0.00 0.00 0.00 0.00 0.00 0.00 0.00 0.00 0.00 0.00 0.01 0.02 0.04 0.08 0.07 0.05 0.04 0.04 0.03 0.02
0.00 0.00 0.00 0.00 0.00 0.00 0.00 0.00 0.00 0.00 0.00 0.00 0.00 0.00 0.00 0.00 0.00 0.00 0.00 0.00 0.00 0.00 0.00 0.00 0.00 0.00 0.02 0.05 0.07 0.08 0.05 0.03 0.03
0.00 0.00 0.00 0.00 0.00 0.00 0.00 0.00 0.00 0.00 0.00 0.00 0.00 0.00 0.00 0.00 0.00 0.00 0.00 0.00 0.00 0.00 0.00 0.00 0.00 0.00 0.00 0.01 0.04 0.06 0.07 0.05 0.04
0.00 0.00 0.00 0.00 0.00 0.00 0.00 0.00 0.00 0.00 0.00 0.00 0.00 0.00 0.00 0.00 0.00 0.00 0.00 0.00 0.00 0.00 0.00 0.00 0.00 0.00 0.00 0.00 0.01 0.04 0.06 0.08 0.06
0.00 0.00 0.00 0.00 0.00 0.00 0.00 0.00 0.00 0.00 0.00 0.00 0.00 0.00 0.00 0.00 0.00 0.00 0.00 0.00 0.00 0.00 0.00 0.00 0.00 0.00 0.00 0.00 0.00 0.01 0.04 0.09 0.11
0.00 0.00 0.00 0.00 0.00 0.00 0.00 0.00 0.00 0.00 0.00 0.00 0.00 0.00 0.00 0.00 0.00 0.00 0.00 0.00 0.00 0.00 0.00 0.00 0.00 0.00 0.00 0.00 0.00 0.00 0.02 0.08 0.15
0.00 0.00 0.00 0.00 0.00 0.00 0.00 0.00 0.00 0.00 0.00 0.00 0.00 0.00 0.00 0.00 0.00 0.00 0.00 0.00 0.00 0.00 0.00 0.00 0.00 0.00 0.00 0.00 0.00 0.00 0.01 0.02 0.04
0.00 0.00 0.00 0.00 0.00 0.00 0.00 0.00 0.00 0.00 0.00 0.00 0.00 0.00 0.00 0.00 0.00 0.00 0.00 0.00 0.00 0.00 0.00 0.00 0.00 0.00 0.00 0.00 0.00 0.00 0.01 0.01 0.01
0.00 0.00 0.00 0.00 0.00 0.00 0.00 0.00 0.00 0.00 0.00 0.00 0.00 0.00 0.00 0.00 0.00 0.00 0.00 0.00 0.00 0.00 0.00 0.00 0.01 0.03 0.01 0.01 0.00 0.02 0.02 0.02 0.01
0.00 0.00 0.00 0.00 0.00 0.00 0.00 0.00 0.00 0.00 0.00 0.00 0.00 0.00 0.00 0.00 0.00 0.00 0.00 0.00 0.00 0.00 0.00 0.00 0.00 0.07 0.02 0.07 0.10 0.13 0.15 0.14 0.01
0.00 0.00 0.00 0.00 0.00 0.00 0.00 0.00 0.00 0.00 0.00 0.00 0.00 0.00 0.00 0.00 0.00 0.00 0.00 0.00 0.00 0.00 0.00 0.00 0.01 0.07 0.12 0.14 0.21 0.33 0.17 0.06 0.01
0.00 0.00 0.00 0.00 0.00 0.00 0.00 0.00 0.00 0.00 0.00 0.00 0.00 0.00 0.00 0.00 0.00 0.00 0.00 0.00 0.00 0.00 0.00 0.00 0.00 0.02 0.11 0.16 0.13 0.13 0.05 0.09 0.05
0.00 0.00 0.00 0.00 0.00 0.00 0.00 0.00 0.00 0.00 0.00 0.00 0.00 0.00 0.00 0.00 0.00 0.00 0.00 0.00 0.00 0.01 0.00 0.00 0.00 0.00 0.00 0.02 0.01 0.10 0.15 0.07 0.14
0.00 0.00 0.00 0.00 0.00 0.00 0.00 0.00 0.00 0.00 0.00 0.00 0.00 0.00 0.00 0.00 0.00 0.00 0.00 0.00 0.00 0.00 0.00 0.00 0.00 0.00 0.00 0.00 0.00 0.01 0.06 0.06 0.06
MSLP
1016.76 1016.68 1016.59 1016.37 1016.19 1016.04 1015.90 1015.77 1015.61 1015.49 1015.38 1015.20 1015.05 1014.92 1014.92 1014.73 1014.59 1014.51 1014.32 1014.23 1014.16 1014.31 1014.48 1014.59 1014.70 1014.84 1014.96 1015.14 1015.27 1015.43 1015.61 1015.76 1015.92
1017.03 1016.88 1016.66 1016.48 1016.29 1016.09 1015.93 1015.79 1015.63 1015.50 1015.39 1015.27 1015.15 1015.04 1015.04 1014.84 1014.53 1014.22 1014.00 1013.84 1013.79 1013.85 1014.08 1014.31 1014.50 1014.58 1014.62 1014.77 1014.95 1015.14 1015.33 1015.54 1015.75
1017.20 1017.08 1016.93 1016.71 1016.42 1016.21 1016.01 1015.82 1015.65 1015.51 1015.35 1015.22 1015.14 1015.09 1015.01 1014.86 1014.65 1014.11 1013.75 1013.57 1013.40 1013.51 1013.67 1013.88 1014.17 1014.32 1014.38 1014.50 1014.65 1014.82 1015.00 1015.16 1015.42
1017.28 1017.22 1017.16 1016.95 1016.66 1016.38 1016.10 1015.87 1015.64 1015.51 1015.30 1015.14 1014.99 1014.87 1014.75 1014.79 1014.57 1014.14 1013.74 1013.30 1012.98 1013.09 1013.31 1013.56 1013.75 1013.89 1013.95 1013.99 1014.15 1014.40 1014.58 1014.75 1014.90
1017.08 1017.17 1017.19 1017.08 1016.77 1016.44 1016.13 1015.91 1015.65 1015.38 1015.15 1014.91 1014.79 1014.59 1014.40 1014.35 1014.10 1013.83 1013.59 1013.24 1012.88 1012.92 1013.04 1013.32 1013.36 1013.49 1013.55 1013.60 1013.65 1013.80 1014.10 1014.26 1014.43
1017.01 1016.93 1016.88 1016.91 1016.73 1016.39 1016.10 1015.73 1015.51 1015.25 1014.97 1014.54 1014.58 1014.41 1014.24 1014.08 1013.81 1013.52 1013.24 1013.17 1013.21 1013.19 1013.14 1013.18 1013.16 1013.17 1013.20 1013.21 1013.28 1013.32 1013.49 1013.66 1013.85
1016.95 1016.89 1016.72 1016.48 1016.58 1016.25 1015.93 1015.49 1015.25 1015.09 1014.98 1014.64 1014.31 1014.41 1013.97 1013.78 1013.67 1013.44 1013.20 1013.16 1013.17 1013.23 1013.24 1013.17 1013.09 1013.05 1013.00 1012.90 1012.90 1012.86 1012.92 1013.07 1013.40
1017.03 1016.89 1016.79 1016.59 1016.28 1016.32 1016.01 1015.69 1015.38 1015.17 1015.03 1014.80 1014.57 1014.32 1013.99 1013.89 1013.71 1013.48 1013.27 1013.23 1013.21 1013.15 1013.08 1013.02 1012.91 1012.74 1012.57 1012.44 1012.35 1012.32 1012.43 1012.58 1012.74
1017.30 1017.15 1016.97 1016.81 1016.55 1016.46 1016.38 1016.06 1015.69 1015.33 1015.17 1014.97 1014.84 1014.59 1014.17 1013.95 1013.69 1013.48 1013.28 1013.21 1013.07 1012.89 1012.82 1012.75 1012.64 1012.48 1012.26 1012.08 1011.92 1011.79 1011.82 1011.93 1012.14
1017.61 1017.42 1017.16 1016.92 1016.70 1016.59 1016.40 1016.21 1015.85 1015.40 1014.98 1014.67 1014.50 1014.30 1014.03 1013.77 1013.55 1013.43 1013.18 1012.99 1012.84 1012.70 1012.53 1012.35 1012.16 1011.96 1011.75 1011.51 1011.33 1011.21 1011.11 1011.28 1011.37
1017.79 1017.63 1017.27 1017.13 1016.88 1016.62 1016.37 1016.13 1015.88 1015.52 1014.97 1014.68 1014.24 1014.00 1013.71 1013.46 1013.32 1013.21 1013.04 1012.73 1012.50 1012.34 1012.15 1011.92 1011.65 1011.47 1011.31 1011.07 1010.82 1010.62 1010.48 1010.42 1010.55
1017.93 1017.75 1017.47 1017.19 1016.89 1016.63 1016.30 1016.03 1015.74 1015.62 1015.20 1014.77 1014.42 1014.05 1013.65 1013.31 1013.22 1013.06 1012.80 1012.61 1012.33 1012.16 1011.84 1011.52 1011.33 1011.14 1010.95 1010.62 1010.26 1010.01 1009.77 1009.66 1009.59
1017.97 1017.88 1017.65 1017.23 1017.02 1016.72 1016.53 1016.24 1016.04 1015.83 1015.40 1014.95 1014.49 1014.16 1013.67 1013.25 1013.10 1012.93 1012.90 1012.95 1012.69 1012.37 1011.98 1011.66 1011.04 1010.60 1010.30 1010.01 1009.77 1009.35 1008.90 1008.82 1009.07
1017.93 1017.89 1017.66 1017.31 1017.23 1016.99 1016.75 1016.51 1016.33 1016.09 1015.63 1015.12 1014.62 1014.18 1013.83 1013.43 1012.97 1013.14 1013.04 1013.04 1012.94 1012.72 1012.37 1011.77 1011.19 1010.41 1009.45 1009.17 1009.05 1008.85 1008.58 1008.14 1008.07
1017.93 1017.88 1017.68 1017.37 1017.36 1017.19 1016.97 1016.85 1016.50 1016.24 1015.81 1015.24 1014.72 1014.16 1013.59 1013.44 1013.29 1013.11 1012.98 1013.16 1012.90 1012.66 1012.46 1012.17 1011.41 1010.33 1009.40 1008.89 1008.65 1008.18 1007.78 1007.34 1007.50
1018.05 1017.99 1017.78 1017.49 1017.44 1017.32 1017.17 1016.97 1016.89 1016.54 1015.97 1015.54 1015.03 1014.00 1013.49 1013.37 1013.44 1013.04 1013.07 1013.16 1012.97 1012.69 1012.63 1012.62 1011.63 1010.80 1009.82 1009.40 1008.74 1007.80 1006.99 1006.81 1007.12
1018.02 1018.05 1017.99 1017.72 1017.54 1017.44 1017.33 1017.25 1017.21 1016.99 1016.54 1016.39 1015.68 1015.21 1014.22 1013.77 1013.81 1013.35 1013.37 1013.22 1012.93 1012.71 1012.69 1012.60 1011.88 1011.58 1010.61 1009.96 1009.30 1007.89 1007.14 1007.09 1007.09
1018.07 1017.99 1017.92 1017.84 1017.67 1017.60 1017.48 1017.34 1017.33 1017.40 1017.01 1016.65 1016.53 1015.91 1015.64 1015.30 1013.94 1013.61 1013.44 1013.43 1013.19 1012.82 1012.54 1012.29 1012.12 1011.49 1011.43 1010.81 1009.96 1008.90 1007.94 1007.24 1006.99
1018.04 1017.98 1017.95 1017.89 1017.72 1017.66 1017.53 1017.36 1017.37 1017.39 1017.41 1016.98 1016.45 1016.40 1016.26 1015.85 1014.80 1014.17 1013.92 1013.61 1013.40 1012.95 1012.37 1012.24 1012.01 1011.77 1011.32 1011.07 1010.65 1009.14 1007.68 1007.45 1006.90
1018.27 1018.23 1018.16 1018.06 1017.88 1017.73 1017.59 1017.43 1017.37 1017.35 1017.40 1017.30 1017.05 1016.80 1016.47 1016.03 1015.83 1015.05 1014.64 1014.23 1013.71 1013.05 1012.56 1012.26 1011.94 1011.95 1011.84 1011.32 1010.96 1010.02 1008.81 1008.02 1007.67
Thickness
5707 5706 5706 5706 5706 5705 5704 5703 5702 5700 5700 5700 5700 5700 5699 5701 5702 5702 5703 5703 5704 5703 5703 5702 5701 5701 5701 5700 5700 5700 5700 5700 5699
5700 5700 5700 5700 5700 5700 5698 5697 5696 5695 5694 5694 5693 5693 5693 5694 5696 5698 5699 5701 5701 5701 5699 5699 5698 5698 5698 5698 5697 5697 5696 5696 5696
5694 5693 5693 5693 5693 5693 5692 5691 5690 5689 5689 5689 5688 5687 5688 5688 5690 5693 5695 5696 5698 5697 5696 5695 5694 5693 5694 5694 5694 5693 5693 5693 5692
5689 5687 5685 5685 5686 5686 5685 5685 5685 5684 5685 5685 5685 5685 5686 5685 5687 5689 5692 5694 5696 5695 5694 5692 5691 5691 5691 5691 5691 5690 5690 5690 5690
5684 5681 5679 5678 5678 5679 5679 5679 5679 5680 5681 5682 5682 5683 5685 5686 5688 5689 5691 5692 5694 5693 5692 5690 5690 5689 5688 5688 5689 5689 5686 5687 5687
5677 5676 5674 5672 5671 5672 5673 5674 5674 5676 5677 5680 5679 5681 5684 5686 5687 5688 5690 5689 5688 5688 5687 5686 5686 5685 5685 5686 5686 5686 5684 5684 5684
5671 5670 5668 5668 5664 5665 5667 5669 5670 5672 5672 5675 5677 5678 5682 5684 5684 5685 5685 5685 5683 5682 5680 5680 5680 5679 5679 5679 5680 5681 5681 5681 5679
5663 5662 5660 5660 5660 5658 5660 5662 5664 5666 5667 5670 5671 5674 5677 5679 5680 5680 5679 5678 5677 5676 5675 5673 5672 5673 5673 5673 5674 5674 5674 5673 5674
5653 5652 5651 5651 5652 5652 5651 5653 5656 5659 5661 5663 5665 5667 5671 5673 5674 5674 5673 5671 5670 5669 5668 5666 5665 5665 5665 5665 5664 5664 5664 5664 5665
5643 5643 5643 5644 5645 5645 5646 5646 5649 5652 5656 5660 5662 5664 5666 5668 5669 5668 5667 5666 5665 5662 5661 5660 5659 5658 5657 5656 5655 5654 5653 5651 5654
5634 5634 5636 5636 5638 5639 5640 5640 5643 5645 5650 5654 5657 5660 5662 5663 5664 5663 5662 5661 5660 5657 5655 5653 5652 5649 5645 5641 5636 5632 5632 5635 5639
5627 5628 5630 5631 5632 5633 5634 5635 5636 5638 5642 5646 5650 5653 5656 5658 5658 5657 5657 5655 5653 5650 5649 5646 5642 5637 5630 5622 5613 5607 5607 5612 5624
5622 5622 5624 5625 5626 5627 5627 5628 5628 5628 5633 5637 5642 5646 5650 5651 5651 5651 5648 5645 5642 5640 5639 5634 5632 5626 5615 5601 5592 5589 5589 5591 5603
5618 5618 5618 5619 5619 5620 5620 5620 5619 5620 5624 5630 5635 5639 5642 5644 5645 5641 5639 5636 5632 5630 5626 5624 5620 5613 5606 5591 5580 5570 5562 5569 5587
5614 5613 5612 5613 5613 5612 5612 5611 5612 5613 5616 5623 5628 5633 5637 5637 5636 5635 5633 5627 5625 5622 5617 5611 5608 5603 5593 5580 5567 5554 5550 5562 5579
5608 5607 5607 5607 5606 5605 5605 5604 5602 5602 5608 5612 5618 5627 5632 5631 5629 5631 5627 5622 5618 5615 5607 5600 5599 5592 5583 5571 5561 5557 5564 5571 5581
5602 5601 5600 5600 5599 5597 5596 5594 5592 5592 5595 5598 5604 5605 5618 5620 5619 5621 5618 5615 5612 5609 5601 5596 5594 5582 5578 5570 5561 5569 5572 5578 5584
5597 5595 5594 5592 5591 5588 5586 5585 5584 5580 5583 5589 5593 5595 5596 5601 5611 5613 5610 5607 5605 5604 5598 5595 5592 5584 5574 5567 5563 5570 5578 5587 5595
5590 5588 5586 5583 5581 5579 5578 5578 5575 5574 5574 5578 5586 5587 5589 5591 5594 5598 5600 5599 5599 5599 5598 5594 5592 5587 5582 5571 5567 5576 5593 5598 5612
5581 5579 5576 5574 5572 5571 5570 5570 5569 5569 5568 5569 5573 5575 5577 5580 5584 5585 5584 5588 5591 5593 5593 5590 5588 5589 5584 5582 5575 5583 5596 5610 5614